Location: Hollin Hills
(38.7573°N, 77.0661°W)
Time: 19:23:08
(UTC+00:00)

BlueWalker 3 - Visible Passes

Search period start: 10 April 2026 00:00
Search period end: 20 April 2026 00:00
Orbit: 450 x 457 km, 53.2° (Epoch: 10 April)

Date Brightness Start Highest point End Pass type
(mag) Time Alt. Az. Time Alt. Az. Time Alt. Az.
10 Apr 2.0 00:38:07 10° NW 00:41:40 55° NE 00:43:43 22° ESE visible
10 Apr 4.6 02:16:36 10° W 02:17:24 13° WSW 02:17:24 13° WSW visible
11 Apr 2.4 00:01:41 10° NW 00:05:07 41° NE 00:08:31 10° ESE visible
11 Apr 3.7 01:39:34 10° WNW 01:42:19 21° SW 01:42:37 20° SW visible
12 Apr 3.4 01:02:45 10° WNW 01:05:53 28° SW 01:07:56 17° S visible
13 Apr 2.9 00:26:03 10° WNW 00:29:26 40° SW 00:32:47 10° SSE visible
16 Apr 4.7 00:15:42 10° WSW 00:16:48 11° SW 00:17:55 10° SW visible
